Погода в Таллах

Россия / Оренбургская область     53°08′19″N   53°03′45″E
темп.,
°C
ветер,
м/с
пор.,
м/с
влажн.,
%
обл.,
%
осадки,
мм/ч
давл.,
гПа
погр.,
м
19 мая, ср
ср1923:00+19св61465100 0.0 1017413
02:00+19св6136691 0.0 1015289
05:00+16всв39715 0.0 1015176
08:00+18всв510670 0.0 1016321
11:00+23в78520 0.0 1016989
14:00+25в79450 0.0 10161749
17:00+26вюв78390 0.0 10162356
20:00+23вюв48540 0.0 1016231
20 мая, чт
чт2023:00+17вюв37670 0.0 1017118
02:00+16вюв4137210 0.0 1018296
05:00+15вюв51365100 0.0 1017323
08:00+17вюв6136199 0.0 1017659
11:00+21юв811490 0.0 10161075
14:00+24юв910495 0.0 10151618
17:00+25юв8114450 0.0 10142300
20:00+22ююз4760100 0.1 1013332
21 мая, пт
пт2123:00+15юв1293100 4.6 101660
02:00+15вюв2490100 0.1 101580
05:00+14ююз3493100 0.1 101685
08:00+17ююз47832 0.0 1017338
11:00+21юз68580 0.1 10171424
14:00+23юз56433 0.0 10172095
17:00+22зюз5646100 0.0 10171401
20:00+20зсз246418 0.0 1018191
22 мая, сб
сб2223:00+16юз1172100 0.0 101911
02:00+15юз337092 0.0 102037
05:00+14юз227217 0.0 102115
08:00+18зюз23636 0.0 1022194
11:00+22зюз345199 0.0 1022976
14:00+24юз2345100 0.0 10221759
17:00+25ююз3444100 0.0 10211509
20:00+24ююв235712 0.0 102048
23 мая, вс
вс2323:00+19ю3664100 0.0 102090
02:00+18ю3465100 0.0 102049
05:00+16с347145 0.0 102163
08:00+17в69766 0.0 1022253
11:00+24вюв455429 0.0 1021610
14:00+28вюв454046 0.0 10201265
17:00+29вюв5636100 0.0 10191707
20:00+25вюв4755100 0.0 1018117